Retour au catalogue

CZ-6A DEB

ActifPO
NORAD 61459·DEBRIS·🇨🇳 China

Lancé Aug 6, 2024 depuis Taiyuan Satellite Launch Center

Loading…

Prochains Passages (prochaines 24 heures)

TLE

FraisSource: Space-Track

Époque: Sep 14, 2026, 14:25 UTC

1 61459U 24140ZR  26257.60110665  .00001512  00000-0  43190-3 0  9992
2 61459  88.4612 210.6576 0043908 344.4378  15.5472 14.44091664108620

Suivez CZ-6A DEB en temps réel avec AllMySat

Download on the App Store